Tracking 19245 objects as of 17-Aug-2018
HD Live streaming from Space Station
objects crossing your sky now

SL-12 R/B(2)

Track SL-12 R/B(2) now!


NORAD ID: 27620
Int'l Code: 2002-060D
Perigee: 19,104.0 km
Apogee: 19,114.8 km
Inclination: 65.6 °
Period: 674.6 minutes
Semi major axis: 25480 km
RCS: 1.5848 m2 (large)
Launch date: December 25, 2002
Source: Commonwealth of Independent States (former USSR) (CIS)
Launch site: TYURATAM MISSILE AND SPACE COMPLEX (TTMTR)

Note: This is a ROCKET BODY
aabbcc
Your satellite tracking list
Your tracking list is empty




NASA's NSSDC Master Catalog

Two Line Element Set (TLE):
1 27620U 02060D   18228.37688236 -.00000036  00000-0  00000+0 0  9998
2 27620  65.5792  50.8992 0002120 233.0621 288.9244  2.13448418121958
Source of the keplerian elements: AFSPC